Simultaneous Nadir Overpasses (SNOs) Predictions

Prediction of SNOs between METOP-A and NOAA-19 Satellite Orbit:

Table of predicted SNOs for the next 14.0 days since TLE Epoch: 11/2/2012
Index Date (METOP-A) Time (METOP-A) METOP-A Lat,Lon Date (NOAA-19) Time (NOAA-19) NOAA-19 Lat,Lon Distance(km) Time Diff (sec)
1 11/10/2012 20:54:51 -73.80, 40.31 11/10/2012 20:53:43 -73.79, 37.77 78.73 68
2 11/10/2012 21:45:41 73.26,-153.59 11/10/2012 21:44:30 73.25,-153.68 3.26 71
3 11/10/2012 22:36:24 -73.23, 13.66 11/10/2012 22:35:36 -73.21, 13.63 2.44 48
4 11/10/2012 23:27:04 73.18,-179.10 11/10/2012 23:26:34 73.20,-179.10 1.78 30
5 11/11/2012 00:17:47 -73.15, -11.84 11/11/2012 00:17:40 -73.16, -11.79 2.06 7
6 11/11/2012 01:08:26 73.16, 155.51 11/11/2012 01:08:38 73.15, 155.48 0.90 12
7 11/11/2012 01:59:09 -73.13, -37.24 11/11/2012 01:59:44 -73.12, -37.21 1.57 35
8 11/11/2012 02:49:48 73.13, 130.11 11/11/2012 02:50:42 73.11, 130.07 3.20 54
9 11/11/2012 03:40:33 -73.00, -62.85 11/11/2012 03:41:47 -73.02, -62.52 11.02 74




NCC Satellite Simultaneous Nadir Overpasses (SNOs) Prediction Service
